COSMOS 2251 DEB, 47051

Orbit data source: Space-Track

COSMOS 2251 DEB, 47051 is space debris in LEO originally from a launch on Wed, 16 Jun 1993 UTC launched from the Plesetsk Missile And Space Complex (PKMTR). The debris from Iridium 33, an American commercial communications satellite, has been tracked extensively since its accidental collision with the defunct Russian satellite Cosmos 2251 in 2009. This event, occurring at high speed in low Earth orbit (LEO), generated thousands of pieces of space debris, significantly increasing the risk of further collisions. The Iridium 33 debris cloud has impacted space traffic management and orbital debris mitigation strategies, making it a subject of ongoing study in space situational awareness.

Loading next visibility...
Identifier
47051, 1993-036BXF
Orbit
LEO
Country
Flag of CISCIS
Related business
Manufacturer
Unknown
Mission
Spacecraft
Bus & Motor
Unknown
Mass
Unknown
Launch date (UTC)
1993-06-16 (33 years ago)
Launch vehicle
Unknown
Launch site
Plesetsk Missile And Space Complex (PKMTR)
Object type
Payload
Rocket body
Debris
Shape & HBR
Unknown shape, 0.1 m
Radar Cross Section
Small (<0.1 m²)

Expand to show TLE details & history
Last TLE update: 6 days ago

TLE from 6 days ago
0 COSMOS 2251 DEB
1 47051U 93036BXF 26257.24411172  .00000994  00000-0  79613-3 0  9993
2 47051  74.0973  92.9523 0341784 141.9918 340.6720 13.67896745637047
Epoch: 2026-09-14T05:51Z
TLE epoch observation values (Epoch: 2026-09-14T05:51:31.252Z)
Latitude
55.35897°
Longitude
167.63035°
Altitude
778.714 km
Speed
7.589 km/s
True Right ascension
16h 34m 57s
True Declination
55° 11' 54"
Sunlit
Object was in daylight at epoch
Visualization orbit readout
Latitude
Unknown
Longitude
Unknown
Altitude
Unknown
Speed
Unknown
Apparent Right ascension
Unknown
Apparent Declination
Unknown
Sunlit
N/A
Visualization observer readout
Local Sidereal Time
17:54:59
Azimuth
Unknown
Elevation
Unknown
Doppler factor
Unknown
Orbital elements
Apogee altitude
1,257.16 km
Perigee altitude
752.485 km
Semi-major axis
7,382.96 km
Eccentricity
0.03418
Inclination
74.0973°
RAAN
92.9523°
Arg. of periapsis
141.9918°
True anomaly
339.32148°
Mean anomaly
340.672°
Eccentric anomaly
340.0023°
Mean motion
3.42135 °/min
Orbital period
105.22 mins
BSTAR
0.00079613

Documentation

Showing up to 5 results
|